Location: Ferques
(50.8300°N, 1.7599°E)
Time: 18:06:41
(UTC+00:00)

Meteor 1-11 Rocket - Pass Details

Date: 19 May 2025
Orbit: 830 x 915 km, 81.2° (Epoch: 22 June)

Event Time Altitude Azimuth Distance (km) Brightness Sun altitude
Rises 22:42:28 0° 344° (NNW) 3,389 8.6 -17.7°
Reaches altitude 10° 22:44:54 10° 341° (NNW) 2,449 7.4 -17.8°
Maximum altitude 22:50:18 57° 264° (W) 980 4.0 -18.0°
Enters shadow 22:53:13 27° 197° (SSW) 1,565 4.6 -18.1°
